Weather in Johvi

Estonia     59°21′27″N   27°25′14″E
temp.,
°C
wind,
m/s
gust,
m/s
humid.,
%
clouds,
%
prec.,
mm/h
press.,
hPa
HPBL,
m
22 september, wed
wed2200:00+5nne268999 0.0 1021205
03:00+5ne2689100 0.0 1021533
06:00+6ne2784100 0.1 1021529
09:00+6ne2682100 0.1 1021433
12:00+10nne336393 0.0 10211032
15:00+10nne456392 0.0 10211107
18:00+9n36705 0.0 1020615
21:00+5n22895 0.0 101950
23 september, thu
thu2300:00+3ne128325 0.0 101722
03:00+5ne1175100 0.0 101644
06:00+5se127598 0.0 101474
09:00+6se3683100 0.0 1012345
12:00+7sse4785100 0.0 1009652
15:00+7sse51085100 0.1 1006811
18:00+7sse61183100 0.1 1003934
21:00+6sse71481100 0.1 999931
24 september, fri
fri2400:00+6se71585100 0.4 995790
03:00+5se61592100 2.1 992808
06:00+5ese61593100 1.6 991719
09:00+5ese51393100 2.8 992720
12:00+5ese51192100 0.2 994717
15:00+6ese4992100 0.3 996670
18:00+6se3993100 0.1 998611
21:00+6se3895100 0.2 999536
25 september, sat
sat2500:00+6se3895100 0.0 999513
03:00+6se2598100 0.1 998208
06:00+7s2598100 0.4 999306
09:00+8sw269892 0.6 999295
12:00+11sw3576100 0.0 1001805
15:00+10sw2479100 0.1 1002356
18:00+8nw0197100 2.1 100528
21:00+8wnw249541 2.3 1007154
26 september, sun
sun2600:00+7wnw399529 0.0 1009239
03:00+6wnw3109553 0.1 1012267
06:00+8nw41091100 0.1 1015530
09:00+8nw488711 0.1 1017664
12:00+11nw577119 0.0 1020897
15:00+12nnw46643 0.0 1022852
18:00+10nnw26785 0.0 1024346
21:00+6nw229413 0.0 102628